Location: Unspecified
(0.0000°N, 0.0000°E)
Time: 12:02:38
(UTC+01:00)

Cosmos 1954 Rocket - Visible Passes

Search period start: 06 March 2015 00:00
Search period end: 16 March 2015 00:00
Orbit: 754 x 782 km, 74.1° (Epoch: 04 March)

Date Brightness Start Highest point End Pass type
(mag) Time Alt. Az. Time Alt. Az. Time Alt. Az.
13 Mar 6.2 20:58:36 10° N 20:59:19 14° N 20:59:19 14° N visible
14 Mar 5.2 20:22:11 10° NNE 20:24:55 24° NE 20:24:55 24° NE visible
15 Mar 5.6 19:46:50 10° NE 19:49:30 15° ENE 19:51:10 13° E visible
15 Mar 5.6 21:26:45 10° NW 21:31:29 32° WSW 21:31:39 32° WSW visible
